Theta_e
330 329 328 327 326 326 325 325 325 324 324 323 323 323 323 323 324 325 325 326 326 326 326 326 327 326 326 326 326 326 327 327 327 327 326 325 325 322 320 322 327 326 323 322 323 322 321 322 321 321 320 320 320 318 318 316 316 316 317 319 318 316 315 316 315 314 314 314 315 314 315 314 314 314 314 313 313 313 313 312 312 312 312 311 312
330 329 327 326 325 325 324 324 323 323 323 322 322 323 322 322 323 323 323 324 325 325 325 325 324 324 324 325 325 324 325 326 326 325 326 325 325 324 317 320 323 325 323 322 323 322 321 321 321 321 321 319 320 318 317 317 316 316 316 315 316 317 314 314 315 314 313 314 313 313 313 313 313 313 313 313 312 313 313 312 311 311 311 311 311
330 329 327 325 324 324 323 323 322 322 322 322 322 322 322 322 322 322 323 323 323 323 324 324 324 322 321 322 323 324 323 324 324 325 324 325 325 323 325 317 321 324 326 323 322 321 321 322 321 320 320 319 321 318 317 317 316 315 316 315 313 313 314 314 313 313 313 313 313 313 312 312 312 312 312 311 312 311 311 311 310 310 310 310 310
330 329 328 325 323 323 322 322 322 321 321 321 320 321 321 321 320 321 321 322 321 321 323 323 323 322 321 320 320 322 322 322 321 322 323 324 324 324 324 324 317 320 322 324 322 321 321 320 320 320 320 319 319 319 318 317 316 315 315 316 315 313 312 312 312 313 312 313 312 312 312 311 311 311 311 311 311 311 310 310 310 310 309 310 309
328 328 327 325 323 322 321 321 321 321 320 320 320 319 319 318 318 318 319 319 319 320 320 322 321 319 319 318 318 319 319 320 319 319 322 322 322 322 323 323 323 316 316 319 323 323 320 320 319 319 319 319 319 319 317 317 316 316 315 314 314 313 313 313 311 311 311 311 312 311 311 311 311 311 311 310 310 310 310 309 309 309 309 308 308
328 328 326 325 323 322 321 320 320 319 319 319 318 319 319 318 317 317 315 318 318 319 319 319 318 317 317 316 316 316 316 317 316 315 316 320 320 321 321 321 321 322 322 315 317 321 322 320 319 319 319 318 318 318 318 317 317 316 315 315 314 313 313 312 312 311 311 310 311 311 311 310 310 311 310 309 309 309 309 309 309 308 308 308 307
327 326 325 324 321 320 319 319 317 318 317 317 318 318 319 318 316 317 316 317 319 318 319 319 317 316 315 315 314 313 313 314 313 312 311 313 315 316 316 318 319 321 321 319 313 315 320 320 319 319 319 319 318 318 317 317 317 317 315 315 314 313 313 312 312 311 311 311 310 310 310 310 310 310 309 309 309 309 308 308 308 308 308 307 307
324 324 324 324 321 320 319 318 316 316 315 315 316 316 317 318 317 318 315 315 315 315 317 317 316 315 313 311 310 308 309 310 311 310 308 309 311 312 314 316 318 319 315 319 318 316 315 319 320 319 318 319 318 318 318 317 317 316 316 316 316 314 314 313 312 311 311 310 309 310 310 309 309 309 309 309 308 308 308 307 307 307 307 307 307
325 324 324 324 322 320 319 317 315 314 314 315 315 317 317 316 316 316 317 315 314 315 314 315 313 311 309 307 306 306 307 307 307 307 306 308 308 307 309 311 312 307 314 317 318 318 314 315 319 320 319 320 318 318 318 318 317 317 316 316 315 315 313 312 312 311 310 310 309 308 309 310 310 309 309 309 308 308 307 307 307 307 306 306 306
326 325 325 325 323 321 319 315 311 311 312 314 315 316 316 316 315 314 314 314 314 313 312 311 309 307 305 303 302 303 304 303 301 300 303 305 306 306 305 304 304 306 309 313 314 316 318 315 314 315 312 316 318 318 317 317 317 317 317 317 316 316 313 312 312 311 310 310 310 309 308 309 309 309 308 309 308 307 307 307 306 306 306 307 306
325 324 324 322 320 319 318 313 310 309 312 313 314 314 314 314 313 311 312 313 313 312 311 307 305 304 302 299 299 299 300 299 299 300 300 301 302 304 304 304 304 304 305 308 308 308 311 317 316 316 316 312 318 318 317 317 317 316 316 317 317 316 314 313 312 311 310 310 309 309 308 308 310 310 308 308 308 307 307 307 306 306 306 306 305
325 323 322 320 319 319 318 315 313 312 312 312 312 312 311 310 310 310 309 308 307 306 303 302 301 300 298 297 297 298 298 297 297 298 298 298 299 300 303 303 303 304 303 303 302 303 306 309 313 315 315 313 312 316 318 317 317 317 316 316 316 315 316 314 313 311 310 310 309 309 309 308 308 309 309 307 307 308 307 307 306 306 306 305 305
326 325 321 318 320 321 320 317 314 313 312 312 311 310 311 311 309 306 306 303 303 302 302 303 301 301 299 299 299 296 295 295 295 296 297 297 297 297 299 301 303 303 301 299 299 299 301 303 307 311 313 314 312 310 314 316 316 316 316 316 316 315 314 314 313 311 311 310 310 309 309 309 308 309 309 308 307 308 307 307 307 306 306 305 305
326 326 321 321 320 320 319 316 313 312 312 311 310 307 308 309 308 305 304 302 302 302 302 303 302 305 302 301 300 300 298 297 296 296 296 296 295 295 297 298 301 301 300 299 299 300 299 300 303 306 310 312 312 313 313 312 314 316 316 316 316 316 316 315 313 313 311 310 309 309 309 309 309 308 309 308 307 307 307 307 307 306 306 306 305
327 324 323 323 321 317 317 315 312 311 310 309 308 307 307 307 306 306 302 302 302 300 301 306 305 306 306 303 301 300 302 298 299 297 297 296 295 295 296 297 299 300 298 298 298 300 299 298 299 300 303 306 310 312 313 308 309 308 315 315 315 317 316 316 315 314 311 310 310 309 309 309 309 309 309 309 308 307 307 307 307 307 306 305 305
327 326 325 324 321 319 317 314 311 309 309 309 308 306 307 307 306 306 303 299 300 299 302 304 309 306 300 301 299 299 299 303 303 304 300 297 296 295 296 296 297 299 297 297 298 300 300 300 299 299 300 302 305 309 312 312 310 304 306 309 312 315 316 316 316 315 313 312 310 310 309 309 309 309 310 309 309 308 308 307 307 306 306 305 305
328 326 323 323 321 319 317 313 310 310 310 310 308 307 307 308 308 306 304 304 302 304 301 303 306 310 308 300 297 296 300 305 305 305 300 299 297 296 296 296 296 296 296 297 299 300 299 298 298 299 297 297 300 303 306 310 311 307 308 303 306 312 314 317 316 316 315 314 312 311 310 309 309 310 310 310 309 309 308 307 306 306 306 305 305
329 327 325 323 321 319 317 314 312 311 311 310 310 309 309 308 308 307 306 307 308 305 302 301 304 306 309 311 311 307 304 302 303 301 301 302 303 299 297 297 296 296 296 296 298 297 297 296 295 296 295 295 295 297 302 306 307 309 310 311 306 309 310 313 317 316 315 315 314 312 311 310 309 309 309 310 309 308 308 308 307 306 306 305 305
329 329 328 325 322 318 317 316 314 313 310 309 308 308 308 308 308 307 307 306 308 304 303 301 299 300 302 305 304 298 302 304 301 304 301 303 301 300 299 296 296 295 295 295 296 296 296 296 295 295 295 294 295 296 299 303 305 307 309 310 312 311 311 312 312 314 315 315 315 314 313 311 310 309 309 309 309 308 308 308 307 307 306 305 305
329 328 328 326 323 320 317 315 314 314 311 309 309 309 309 309 309 307 307 307 306 305 304 302 298 299 300 301 302 301 298 297 299 303 303 301 302 299 299 298 295 294 294 294 294 294 295 296 296 295 294 294 294 295 298 300 303 304 305 309 313 312 312 312 311 310 313 314 316 315 314 313 311 310 308 309 309 309 308 308 307 307 306 305 305
329 328 326 326 322 322 319 317 315 314 311 310 309 310 310 309 308 306 306 305 306 306 306 304 303 303 302 300 301 301 299 297 298 296 296 297 300 300 298 297 295 294 294 293 294 295 295 295 296 295 293 294 294 294 295 296 298 299 302 306 312 314 313 313 312 310 309 310 314 315 314 314 313 312 310 309 309 309 308 307 307 307 306 305 305
326 326 326 325 323 322 321 318 315 313 311 311 311 311 311 310 309 307 306 305 305 305 305 306 305 304 306 304 301 301 300 299 297 295 295 297 298 302 303 298 293 297 297 294 293 294 295 295 293 293 293 293 293 292 292 292 293 295 298 303 308 313 314 312 312 311 310 309 310 310 311 313 313 313 312 311 310 309 309 308 307 307 306 305 305
323 322 322 322 321 319 319 319 317 314 312 312 310 310 309 308 308 307 306 305 305 305 304 304 306 304 304 304 303 302 301 299 299 299 297 297 297 297 299 300 299 298 300 298 295 294 293 293 292 292 292 291 292 292 291 291 292 293 295 298 303 308 311 313 311 311 310 310 310 309 309 309 310 312 313 312 311 311 310 309 308 308 307 306 305
320 320 320 320 319 319 317 318 316 316 314 312 311 310 309 309 308 307 306 306 305 305 304 303 303 305 305 305 304 305 305 304 304 303 300 299 300 299 300 300 296 295 295 291 293 294 293 291 291 291 291 291 291 292 292 291 291 292 292 294 299 304 309 312 312 310 310 310 309 309 308 308 308 308 308 310 312 311 310 310 309 308 307 307 306
315 315 318 319 319 318 318 317 316 315 314 312 310 310 309 308 308 308 307 305 305 304 304 304 304 303 304 305 303 304 304 305 305 304 304 302 300 297 299 298 297 299 295 292 291 289 291 292 292 291 290 290 291 291 290 290 289 291 291 291 295 299 304 309 311 310 309 309 309 308 308 309 308 308 309 308 311 312 311 310 310 309 309 307 307
317 316 317 317 317 318 318 319 318 317 315 314 312 311 310 309 309 308 307 306 305 305 305 305 305 304 304 303 303 303 303 304 304 303 301 299 297 297 298 298 296 296 297 289 289 289 289 290 292 291 290 290 290 290 290 289 289 290 290 290 292 296 299 304 308 309 309 308 308 308 307 307 309 308 307 308 309 310 311 310 310 309 309 308 307
318 319 319 318 317 317 317 317 318 318 317 315 314 313 312 311 310 309 308 308 306 305 305 304 304 304 303 303 303 303 303 303 302 302 302 301 300 300 297 294 295 295 292 290 289 289 291 291 289 290 291 291 291 291 290 289 290 290 289 290 290 292 295 300 306 308 308 308 307 307 307 307 307 307 305 304 306 307 309 310 309 309 308 307 306
318 318 318 318 318 317 316 315 317 317 316 316 315 313 312 310 309 308 307 308 306 305 305 304 304 304 303 304 303 302 303 303 302 302 302 302 301 301 299 296 293 292 296 295 290 289 291 291 292 291 291 291 291 290 290 290 289 289 288 289 290 291 293 297 303 307 307 307 306 306 306 306 306 305 304 303 304 305 306 306 306 305 304 304 304
317 316 315 315 315 316 316 315 315 315 315 314 314 313 312 310 309 309 308 308 306 305 305 304 304 304 303 303 303 302 302 302 302 302 301 301 301 300 300 298 297 294 292 293 296 297 292 291 291 292 292 292 291 291 290 289 289 288 288 288 289 290 291 295 299 304 306 306 306 306 305 305 305 304 302 302 302 303 304 304 305 304 303 302 301
314 314 313 313 312 310 313 314 314 314 314 313 313 312 312 311 310 309 309 309 307 306 305 304 304 304 303 303 302 302 302 302 301 302 301 301 300 299 298 298 299 296 295 293 294 298 299 292 292 294 293 291 290 291 290 289 289 288 288 288 287 288 290 293 296 300 303 304 305 305 305 304 303 303 303 302 302 303 304 303 302 302 302 301 302
311 311 311 311 311 311 311 311 312 312 313 312 311 311 311 310 309 308 308 308 306 305 305 304 304 303 302 301 302 302 302 302 302 300 299 298 298 298 298 298 296 296 295 294 291 296 301 299 293 293 293 291 291 290 289 288 288 288 287 287 287 287 289 290 293 296 300 302 302 304 304 304 303 302 302 301 303 302 304 303 302 303 303 302 302
311 311 310 310 310 309 310 309 310 310 311 311 311 310 310 309 309 308 308 307 306 305 305 305 304 303 302 301 300 301 301 301 299 298 298 299 299 298 298 298 297 296 295 294 292 292 298 299 301 296 293 292 290 287 287 288 288 287 286 287 287 287 287 287 290 293 296 300 302 303 302 303 302 302 301 301 302 302 302 303 302 302 302 301 301
309 309 309 308 309 309 309 309 309 309 309 309 310 309 309 309 308 308 308 308 307 306 306 304 303 303 302 301 301 301 301 300 300 300 300 300 299 298 297 296 295 295 294 292 291 292 296 299 298 298 294 291 287 287 287 286 286 286 286 286 286 286 286 286 287 289 293 297 299 301 301 301 301 300 300 300 301 302 302 301 301 300 300 300 301
309 308 308 309 308 309 308 308 308 308 308 309 309 308 307 307 307 307 307 307 306 305 304 301 301 301 301 300 300 301 302 301 301 301 301 298 297 296 295 294 293 294 294 292 292 292 293 296 297 297 292 290 288 288 286 285 285 285 285 285 285 285 285 285 286 287 291 294 297 300 301 301 301 300 299 299 300 301 301 301 299 299 298 299 299
308 307 307 308 307 307 307 307 307 307 307 307 308 307 307 306 306 306 306 305 304 303 301 300 300 300 299 299 300 301 302 300 299 299 298 297 296 295 295 295 294 294 295 294 293 292 292 292 295 295 294 290 289 288 286 286 286 286 285 285 284 285 285 285 285 286 290 293 296 299 300 301 301 300 299 299 299 299 298 299 299 298 298 298 297
305 306 305 306 306 305 305 305 305 305 305 306 306 306 305 305 305 304 304 304 304 303 301 299 299 298 298 298 298 299 299 298 298 298 298 297 296 296 295 295 294 294 294 294 293 291 291 291 293 295 296 294 290 288 287 286 285 285 284 285 285 284 284 284 284 285 287 291 294 297 298 300 299 299 299 298 298 298 298 297 298 298 297 297 296
303 303 302 302 302 302 302 303 304 304 304 305 305 304 304 304 304 304 303 303 303 302 301 300 296 298 298 297 298 298 298 297 297 297 298 297 296 296 295 294 294 294 293 293 292 292 291 291 292 294 295 293 289 287 286 284 284 285 285 284 284 284 283 284 283 284 286 288 290 293 295 297 298 298 299 298 298 297 297 297 297 296 296 295 295
302 301 300 300 299 299 300 301 302 303 303 303 304 303 303 303 302 302 302 301 301 301 300 299 299 299 299 298 298 297 297 296 296 296 297 296 295 294 294 294 294 293 293 292 292 292 291 291 292 292 293 290 288 287 286 285 284 283 283 283 283 284 283 282 282 283 283 284 284 287 291 295 296 297 297 297 297 297 297 296 296 295 295 295 294
299 300 300 299 300 299 299 299 300 301 301 302 302 302 302 302 302 300 299 299 298 299 300 300 300 300 300 299 297 297 297 297 296 296 296 295 295 294 294 294 294 293 292 292 292 291 290 289 290 291 290 292 290 288 286 285 285 284 282 281 280 282 282 281 281 282 283 283 285 287 288 290 292 293 294 296 296 297 295 296 295 295 294 294 295
298 299 299 299 299 299 299 299 300 300 300 300 301 301 301 301 301 300 299 298 297 297 298 299 299 299 299 299 299 299 298 298 297 297 296 295 296 294 295 294 294 293 292 292 291 290 289 289 289 289 290 290 290 288 286 283 282 283 283 282 281 280 280 281 282 281 282 282 281 282 285 288 290 291 293 294 295 296 295 295 295 294 293 294 294
297 298 298 298 298 298 298 298 298 298 298 299 299 300 300 299 300 300 299 298 297 297 297 297 298 297 298 299 298 298 297 293 293 294 295 295 297 295 295 295 294 293 292 291 291 290 289 289 289 290 289 289 289 288 284 282 281 281 283 282 281 282 281 280 281 282 282 281 281 281 282 284 285 286 287 289 291 293 293 293 293 292 293 293 293
297 297 297 297 296 296 296 296 296 296 297 297 293 293 294 298 299 299 299 298 297 296 296 296 296 296 296 297 298 292 291 291 291 291 292 293 293 295 296 295 293 292 291 290 290 290 289 288 288 288 288 288 288 289 287 285 284 284 283 282 280 281 281 280 280 281 282 281 280 279 280 283 284 284 286 286 288 289 290 290 290 289 289 292 292
294 295 294 295 295 295 295 294 294 295 296 296 292 294 294 294 295 297 297 297 297 296 295 295 295 295 296 296 297 294 291 290 291 291 292 292 292 292 292 293 293 293 291 290 290 290 289 289 290 289 288 288 289 290 288 288 286 284 283 283 282 281 279 278 277 280 283 281 280 278 279 282 284 282 284 285 286 287 288 288 290 290 289 291 291
293 294 293 294 295 295 295 295 295 295 295 292 293 293 293 294 293 295 296 296 296 296 295 295 295 295 295 295 296 296 295 295 295 294 292 291 291 291 292 292 292 292 293 292 291 290 289 289 289 289 289 288 289 290 289 288 286 285 283 283 282 281 279 279 279 278 281 282 279 278 278 281 283 282 282 284 285 285 286 288 290 290 291 291 291
291 292 293 294 294 295 295 295 294 295 295 293 293 293 293 293 293 293 295 296 295 295 295 295 295 295 295 295 294 295 296 290 290 294 294 294 291 290 290 290 291 291 293 293 293 291 292 290 289 289 290 290 289 289 290 289 287 285 284 282 282 281 281 280 280 280 281 282 279 278 277 280 281 281 281 283 284 284 285 288 289 289 290 291 290
291 292 291 292 292 293 294 294 294 295 295 292 292 292 292 292 293 293 295 295 295 295 295 295 295 295 295 294 294 294 294 294 294 293 293 293 292 293 292 292 292 291 290 291 291 291 291 291 290 289 290 291 290 290 291 289 286 285 284 282 282 281 281 280 282 282 283 282 279 278 277 279 281 280 279 281 283 283 284 286 288 289 290 290 290
290 291 292 291 291 290 291 291 293 293 294 292 292 292 292 292 292 293 295 295 295 295 295 295 295 294 294 294 294 294 294 294 294 293 293 292 291 290 289 289 291 292 292 291 291 291 291 291 291 291 291 292 292 292 291 289 288 287 286 285 284 283 283 284 283 284 283 283 281 279 276 279 281 279 279 281 282 283 284 286 288 288 289 289 290
291 291 290 290 289 289 290 290 291 292 293 292 291 291 291 292 292 293 293 294 293 294 294 294 294 294 294 294 293 293 293 293 292 292 291 292 290 288 288 288 289 290 291 290 291 291 291 291 291 291 292 291 292 290 290 290 288 287 286 286 285 283 282 281 280 282 280 282 281 279 278 279 281 279 279 282 282 282 284 283 286 288 289 289 289
289 289 289 289 290 290 289 289 289 290 291 291 291 291 291 291 291 291 292 291 291 292 292 293 293 293 294 294 293 293 293 292 291 292 292 291 289 288 288 287 288 288 289 291 291 291 291 291 292 292 293 293 293 294 293 294 290 287 285 283 282 283 280 278 279 280 279 280 281 280 279 278 281 279 279 281 281 281 282 282 282 286 288 289 289
289 289 289 290 289 289 288 288 289 289 289 290 290 290 290 291 290 290 290 290 290 290 291 292 293 293 292 288 289 292 292 291 291 292 292 290 288 288 287 287 287 287 288 289 289 289 290 290 290 291 291 291 292 292 293 293 293 290 284 282 284 283 280 280 278 280 280 279 280 282 279 279 280 280 278 275 276 280 280 280 280 282 286 288 289
288 289 289 289 289 289 289 288 286 287 288 288 289 289 289 290 290 289 290 290 289 289 289 290 291 291 291 289 287 288 290 291 291 292 292 290 289 288 287 287 287 286 288 288 288 287 287 287 287 287 287 288 287 288 288 290 290 289 286 285 286 283 281 281 280 280 279 278 280 283 278 279 277 279 278 274 274 277 277 278 278 279 281 284 286
Wind_Speed
6 6 5 5 5 5 5 4 4 4 4 3 4 4 3 3 3 4 3 4 4 3 3 3 3 3 3 4 4 3 4 4 5 5 5 6 7 7 7 6 4 8 7 6 9 9 10 10 10 11 10 12 12 11 11 9 9 10 10 12 12 11 10 12 10 11 11 11 12 11 12 12 12 12 13 13 13 13 14 14 14 14 14 15 15
6 5 6 5 5 5 5 4 4 4 4 4 4 4 3 3 3 3 4 4 4 3 4 4 3 3 3 3 3 3 3 4 5 5 6 6 6 7 4 5 7 8 8 7 10 10 10 10 10 11 12 12 12 11 10 10 10 10 9 9 10 14 10 10 12 10 11 11 11 11 11 11 12 12 12 11 12 13 13 13 13 13 13 14 14
6 6 6 6 6 5 5 5 5 5 5 4 4 3 3 3 3 4 4 4 4 3 4 5 4 3 2 2 2 4 3 3 4 3 5 6 7 8 6 6 7 7 9 12 9 7 10 11 11 10 9 10 14 11 10 10 10 9 11 9 6 6 11 10 10 10 10 10 10 10 10 11 11 10 10 11 12 12 12 12 12 12 12 12 13
6 6 6 6 6 6 5 5 5 5 5 4 4 3 3 2 2 2 2 3 3 4 3 5 5 4 3 2 1 3 4 3 2 2 2 4 5 7 8 7 2 5 7 10 10 9 10 11 11 12 12 11 11 11 11 11 10 10 9 12 11 9 6 7 7 11 9 11 9 10 10 10 10 10 10 10 10 11 11 11 11 11 11 11 11
5 6 6 6 6 7 6 6 5 5 5 5 5 4 3 3 3 3 3 3 4 4 3 4 5 4 3 3 2 2 2 2 2 2 3 3 4 5 7 8 7 4 6 6 8 11 9 11 11 11 11 11 11 11 11 11 10 10 11 9 10 10 9 9 7 7 10 9 11 9 9 9 9 9 9 10 10 10 10 10 10 10 9 10 10
6 6 5 5 5 6 7 7 6 6 5 5 5 5 5 5 5 5 5 5 5 5 6 6 5 4 4 3 2 2 2 3 2 1 1 4 4 4 4 5 5 9 7 4 4 5 7 11 12 11 13 12 11 11 12 11 11 12 11 10 10 10 10 10 9 9 8 9 10 9 9 9 9 9 9 9 9 9 9 9 9 9 8 9 9
6 6 6 6 5 6 6 6 6 6 6 6 6 6 6 7 6 7 5 6 6 5 6 6 6 6 5 4 3 2 2 2 2 2 2 2 2 1 2 3 5 5 7 8 5 6 7 9 12 11 13 13 13 13 12 13 12 12 12 11 10 8 9 9 9 9 10 9 9 9 9 9 10 10 9 9 9 9 9 9 8 8 8 8 8
8 7 6 7 7 6 6 5 6 5 5 5 6 7 7 7 7 7 7 7 6 6 5 5 5 5 4 3 1 2 2 3 3 2 1 2 2 2 2 3 5 5 4 6 8 9 11 10 10 11 13 14 14 13 14 13 13 13 13 13 14 12 12 12 10 10 10 10 9 11 11 10 10 10 10 9 9 9 9 8 8 8 8 8 7
10 10 9 9 8 8 7 7 6 6 6 6 6 6 6 6 6 6 7 7 7 7 5 5 4 2 1 1 0 1 2 1 0 1 1 3 2 2 3 2 2 1 4 4 4 7 9 7 13 12 9 12 14 14 13 14 13 13 13 13 12 13 12 11 12 10 9 10 10 9 10 12 10 11 11 9 9 9 8 8 7 8 7 7 7
11 10 9 8 8 6 6 7 6 5 5 6 7 7 6 7 7 5 5 5 7 7 7 5 3 2 2 1 0 1 1 1 2 2 2 3 3 3 3 2 3 3 2 3 2 2 5 6 11 9 8 8 13 15 14 14 14 13 14 14 15 13 12 11 11 12 13 13 12 11 9 10 13 11 10 11 10 9 9 8 8 7 7 7 6
8 9 8 6 5 5 5 7 7 7 7 7 8 7 7 7 7 7 5 5 5 6 5 4 3 2 1 1 1 1 1 1 2 2 2 2 3 3 2 4 3 2 2 2 1 0 2 4 7 8 8 10 10 13 14 15 15 15 16 16 15 15 14 14 14 14 14 12 12 13 12 9 13 13 10 10 11 9 10 9 9 8 7 7 7
7 8 9 5 5 7 8 8 8 8 9 9 9 8 9 9 7 8 8 5 1 1 2 4 3 2 1 0 1 2 3 2 3 3 3 3 3 3 4 4 4 3 3 2 1 0 2 3 2 5 8 9 9 11 13 14 15 16 16 16 17 16 17 17 16 15 14 15 15 13 14 12 11 13 13 11 9 12 11 10 9 9 8 7 7
10 10 10 10 10 9 10 9 10 9 9 9 8 7 7 7 5 3 6 5 4 2 3 3 4 2 1 2 3 3 3 3 5 4 5 3 3 4 4 4 5 4 2 2 2 2 2 3 3 3 5 6 7 9 12 14 14 17 18 18 17 15 14 16 16 16 15 15 15 15 15 15 13 14 14 14 11 13 12 11 10 10 9 8 7
11 11 9 10 10 10 10 9 10 9 7 5 5 6 7 6 6 4 3 6 6 6 6 6 4 7 4 4 4 4 5 4 6 7 6 5 4 4 4 5 5 4 2 3 4 4 3 2 3 2 4 5 7 7 8 9 9 16 19 18 19 19 19 18 17 18 17 16 16 16 16 16 15 13 15 15 15 14 14 13 12 11 10 10 9
9 9 8 11 10 7 6 6 7 6 5 5 6 7 7 9 10 8 6 2 2 4 8 11 6 4 2 2 5 4 4 4 7 10 8 6 4 5 4 5 6 4 3 3 4 5 3 3 4 5 5 5 5 6 6 9 11 12 15 17 20 21 20 20 19 19 19 19 18 18 18 17 17 16 16 16 17 15 14 14 14 12 12 11 10
8 9 8 9 9 10 6 6 6 6 8 8 8 9 7 8 10 9 6 5 6 8 11 11 7 9 5 8 2 1 5 10 10 9 9 9 7 7 4 5 5 6 4 6 6 4 4 3 3 4 4 6 5 7 5 7 10 9 13 15 17 20 22 22 21 21 20 19 20 20 19 18 18 17 17 18 17 16 15 15 14 13 13 12 11
9 10 10 9 9 8 8 7 7 8 9 9 9 11 11 12 13 11 12 12 10 8 9 11 10 8 5 5 2 3 9 3 4 6 7 7 11 9 8 7 8 6 5 6 4 4 4 4 5 5 5 5 5 6 5 6 5 8 10 12 14 18 19 21 23 23 22 21 20 20 20 20 19 19 19 19 18 17 16 16 15 14 14 13 13
11 11 11 10 10 10 10 10 10 10 10 10 10 9 11 12 13 12 14 15 11 7 7 9 11 9 8 6 1 5 4 3 3 6 5 8 7 8 10 11 7 9 5 6 6 6 6 6 5 6 4 5 5 5 5 5 7 8 8 11 13 15 18 16 22 24 22 22 20 21 20 21 19 20 19 20 19 19 18 18 16 16 16 15 14
9 10 11 9 8 9 11 11 10 10 9 8 7 9 9 12 10 11 11 11 8 8 9 8 5 8 10 10 5 1 4 3 7 2 6 4 8 7 12 11 10 10 8 8 8 6 7 6 7 6 5 5 5 5 6 7 11 11 15 15 16 14 14 13 18 21 23 23 22 22 22 22 21 21 21 21 20 19 19 19 18 17 17 17 15
8 8 10 10 9 8 10 9 8 8 8 8 9 8 6 5 8 11 9 8 10 10 9 9 12 11 13 12 10 3 2 5 5 5 7 6 5 4 8 10 9 10 8 7 7 8 8 7 8 6 6 7 5 6 7 7 5 7 9 12 16 17 17 17 18 19 19 23 25 24 23 22 22 21 23 22 22 21 21 20 19 19 18 17 16
9 8 8 8 9 10 10 9 9 10 9 9 9 10 14 13 11 9 11 11 11 12 9 9 11 12 9 11 11 10 6 4 3 1 5 8 9 6 6 4 7 10 9 12 12 10 11 8 6 5 6 7 6 6 6 4 7 8 6 13 18 20 20 21 19 21 22 21 25 26 24 23 23 22 23 23 23 22 22 22 20 20 20 18 17
8 8 8 8 8 10 9 11 10 9 11 11 12 12 11 10 11 12 12 12 10 9 11 8 8 8 10 7 8 10 8 7 8 6 8 8 11 10 9 7 9 11 13 11 14 13 11 8 7 6 8 7 6 7 8 9 8 7 8 14 18 22 23 22 21 20 21 19 19 21 25 24 24 23 23 24 24 23 22 21 20 20 20 20 18
7 7 7 6 6 6 8 9 9 9 8 8 8 8 8 9 10 10 12 13 9 9 12 13 9 9 10 8 10 12 12 12 14 12 12 11 8 10 12 11 11 11 7 12 12 12 11 9 10 10 7 6 7 7 10 10 11 10 14 13 16 19 22 23 22 21 22 19 20 21 23 25 26 25 25 24 24 24 23 23 22 22 22 21 19
6 6 6 7 7 6 7 7 8 9 9 7 7 8 8 8 8 9 9 11 9 9 9 11 10 8 10 11 10 9 11 12 8 9 10 13 12 12 10 5 5 8 3 1 3 9 11 12 12 13 12 11 10 9 10 10 11 13 14 15 16 17 20 24 24 21 19 21 23 24 27 27 25 25 24 25 24 25 25 24 22 23 23 21 19
7 7 8 10 9 8 7 7 7 7 8 7 7 9 7 8 8 9 8 10 8 11 10 13 13 13 13 10 9 11 12 10 10 9 7 6 8 10 11 6 9 9 3 3 6 3 6 9 11 14 13 13 12 7 9 11 11 11 15 12 17 17 18 20 25 24 20 19 21 24 25 26 27 25 25 25 26 26 25 24 23 24 24 20 19
9 10 11 10 10 9 9 9 9 8 8 8 8 9 9 10 10 11 11 10 10 14 15 14 12 14 11 9 11 10 11 9 9 8 8 7 8 10 11 9 7 9 2 2 2 4 5 9 9 6 8 8 13 9 11 13 12 13 16 14 13 18 18 19 21 25 24 21 21 21 23 24 26 25 25 26 26 28 26 25 26 24 23 21 21
7 7 7 9 10 9 10 11 11 11 10 9 9 10 11 10 8 10 9 8 10 11 11 13 13 12 10 10 10 9 9 7 7 9 8 9 10 10 9 12 11 9 7 6 5 11 10 5 8 9 12 12 11 11 10 11 12 13 17 13 13 16 19 21 22 24 27 24 22 23 21 21 23 27 25 24 26 26 28 25 25 25 24 22 22
5 5 5 6 8 10 10 11 11 11 12 12 11 9 11 11 11 10 11 7 9 12 9 10 13 11 11 8 8 9 8 9 8 8 9 9 10 9 8 8 10 14 10 11 7 9 10 10 7 11 11 13 11 9 17 14 12 14 18 12 13 13 19 22 24 25 26 27 25 22 22 21 21 25 26 24 23 23 22 22 23 22 21 20 21
5 4 5 6 6 8 9 10 11 11 11 11 11 10 10 10 9 11 12 10 9 11 9 9 10 10 11 12 11 10 10 8 7 9 8 10 9 9 10 11 11 13 12 12 14 12 7 12 8 9 12 11 11 10 11 9 13 16 13 14 15 14 16 23 26 26 27 27 29 28 26 24 23 24 25 24 24 24 22 22 24 20 23 15 9
5 4 5 6 6 8 8 8 8 9 11 11 11 12 12 10 10 9 10 10 12 9 8 7 8 8 9 9 8 9 10 9 8 10 9 9 9 8 7 9 9 13 13 14 15 8 10 7 9 6 8 9 9 8 9 10 14 19 14 14 15 14 17 19 23 26 26 27 27 29 31 29 26 23 22 23 23 20 19 20 18 21 20 13 14
6 6 6 6 6 7 7 8 8 9 10 10 11 11 11 11 11 9 9 10 10 11 8 8 7 8 10 11 11 11 9 10 10 8 8 8 8 9 10 8 11 13 13 13 16 10 8 9 7 8 5 8 8 7 8 11 13 16 15 14 16 17 19 13 17 22 23 27 27 28 31 29 29 26 22 22 22 25 22 22 23 14 16 16 19
6 6 6 7 7 7 7 8 7 8 10 12 11 11 11 11 11 10 9 10 11 11 10 9 6 7 10 12 11 11 9 8 9 9 9 10 10 9 9 13 11 11 11 13 15 21 7 11 9 5 9 6 6 7 9 9 11 16 14 14 15 17 14 14 20 22 25 27 29 28 32 27 28 28 25 24 25 28 28 26 26 24 19 20 21
4 5 6 6 7 8 9 8 10 11 11 11 11 10 11 12 11 12 12 13 14 12 9 11 11 10 11 13 13 13 11 11 9 10 11 11 10 10 10 10 10 11 11 13 15 20 9 10 10 9 5 5 6 7 8 7 6 8 12 12 13 13 13 14 14 19 24 25 25 24 28 29 26 27 26 28 27 26 27 28 28 29 23 21 23
7 9 8 8 9 10 10 10 11 11 12 12 12 11 12 12 12 10 12 13 14 11 10 11 10 10 11 12 13 12 11 12 12 12 10 9 10 10 10 10 11 11 11 12 13 13 18 5 10 7 5 7 8 8 11 9 9 10 11 12 11 13 13 13 13 13 21 22 21 22 24 29 25 26 28 25 27 27 28 27 25 24 23 24 23
7 8 9 9 9 9 10 10 11 11 12 12 12 12 12 12 12 12 12 12 13 11 10 10 9 9 11 12 13 12 9 11 12 11 10 10 9 11 12 11 10 11 12 14 13 16 18 15 8 12 9 7 9 7 9 8 9 9 9 11 12 11 12 14 13 11 14 20 25 23 25 27 26 26 28 28 26 27 25 25 24 22 24 24 24
7 7 8 9 9 9 9 10 10 11 11 11 12 12 12 12 12 13 13 13 13 12 10 9 9 9 11 10 11 10 10 12 12 11 11 10 11 11 12 12 12 13 13 11 13 13 14 14 8 11 6 10 10 8 6 9 9 9 8 9 9 12 12 11 13 12 15 21 23 22 24 24 25 26 28 26 27 26 24 25 24 26 25 24 25
8 7 7 7 8 8 9 10 11 11 12 12 13 12 11 11 12 12 13 12 12 10 9 9 9 10 10 12 11 11 11 12 12 11 10 12 11 11 12 11 12 12 10 11 13 13 16 19 12 9 10 9 7 5 6 7 7 8 7 8 10 11 10 11 10 10 13 19 19 21 22 26 26 27 28 28 27 25 26 28 29 29 27 27 26
7 7 7 7 7 8 9 10 10 11 11 11 12 12 11 11 11 11 11 9 9 9 10 10 10 10 11 11 10 10 10 12 11 11 11 12 11 11 12 12 11 11 12 12 12 13 14 14 16 15 8 10 8 8 5 6 6 6 6 6 6 8 8 7 9 9 9 10 11 14 19 21 23 26 28 26 30 31 30 29 29 29 25 25 28
7 7 7 8 7 7 8 8 9 10 11 11 12 12 12 12 12 11 10 10 10 10 10 9 10 10 11 11 11 10 11 11 11 11 11 11 11 12 12 13 12 12 12 12 11 13 13 14 15 12 10 10 9 10 5 7 6 6 6 5 8 8 8 10 9 8 9 11 14 18 16 16 19 18 24 28 29 30 31 31 29 28 25 26 27
6 7 7 7 7 7 8 9 9 10 11 11 11 12 12 12 11 10 9 10 10 10 11 10 10 11 11 11 12 12 12 12 11 11 11 12 10 12 11 11 11 11 12 11 11 11 12 13 14 12 11 10 8 7 2 6 6 7 10 9 9 8 10 10 11 9 10 10 11 11 16 16 18 24 25 22 26 31 30 28 28 25 25 25 29
5 6 7 7 8 8 9 9 9 9 10 10 10 10 11 12 11 12 11 10 10 10 10 10 10 11 11 11 11 11 12 13 16 15 14 13 11 11 11 10 12 11 11 10 11 11 11 12 13 11 11 12 7 8 6 8 10 11 7 8 10 7 4 5 7 9 8 11 10 11 13 14 13 14 15 15 17 22 23 25 20 24 22 24 24
5 5 6 7 8 8 9 9 9 9 9 9 9 12 11 10 10 10 10 10 9 9 10 10 11 11 12 11 12 15 16 17 17 18 19 19 19 16 12 9 11 11 11 11 11 10 11 12 13 11 13 12 8 11 12 11 7 5 7 10 12 10 6 6 6 9 11 11 9 9 11 12 13 14 14 15 15 15 12 13 12 12 16 23 23
5 5 5 7 8 8 8 8 9 9 9 9 10 11 13 13 12 11 11 10 9 9 10 10 11 11 11 11 11 12 13 15 16 18 18 20 20 21 22 20 15 12 10 12 12 10 11 12 12 11 13 15 14 10 11 10 9 12 12 10 10 7 9 8 10 4 9 12 9 7 9 12 12 12 12 11 15 13 13 14 15 20 20 21 22
4 5 6 7 6 7 7 8 9 9 10 10 10 12 12 12 12 11 11 11 9 9 10 10 10 10 11 10 10 9 10 11 11 12 15 18 20 20 20 20 21 22 20 14 12 11 11 12 14 14 13 13 12 10 9 8 10 9 10 9 11 11 9 10 7 8 6 14 10 11 11 11 11 13 15 17 15 15 14 14 20 23 22 21 21
3 5 6 6 7 6 7 8 9 9 9 9 10 13 13 14 13 12 10 11 11 10 10 11 11 10 9 9 9 9 8 12 12 12 11 11 14 18 20 21 21 21 21 23 22 17 12 13 14 16 14 10 12 13 10 10 7 10 8 9 9 8 11 10 9 6 7 14 9 9 8 10 13 14 13 11 12 13 12 17 23 25 25 24 24
4 5 4 6 7 6 7 7 8 8 9 7 9 11 12 12 13 12 11 12 12 13 13 12 10 10 10 10 10 10 9 9 10 10 10 11 11 11 11 11 12 14 17 21 21 23 21 16 15 17 15 9 13 12 10 6 9 12 10 12 12 11 13 15 16 10 3 11 13 9 8 8 11 10 11 11 11 13 11 14 25 26 26 26 25
3 4 4 4 4 3 5 5 7 9 8 8 9 11 12 12 12 11 11 11 11 12 12 12 11 10 10 10 11 11 10 9 9 10 10 11 10 10 10 11 12 11 11 10 11 12 13 13 15 17 18 15 14 14 12 7 11 12 12 14 14 14 12 8 5 4 5 9 13 11 15 8 8 9 12 8 12 11 6 13 24 25 27 27 26
3 3 4 3 4 4 4 4 7 9 9 9 9 11 12 12 11 9 9 10 11 12 12 12 11 11 11 10 10 10 10 10 10 13 13 11 10 11 12 11 11 10 11 10 14 14 13 12 13 14 14 14 15 13 12 9 7 7 5 4 3 5 6 8 11 8 8 9 14 12 7 6 9 11 10 7 12 9 7 8 18 25 26 27 27
4 4 4 4 4 5 5 4 6 9 9 10 11 12 12 12 10 7 8 9 10 11 12 11 11 11 11 11 11 11 10 10 10 13 15 14 11 13 12 13 11 10 10 8 13 17 18 21 22 22 22 22 20 20 20 21 13 7 6 6 10 7 8 9 9 9 7 8 9 13 9 6 7 9 6 8 11 11 8 8 7 18 26 26 27
6 5 5 5 4 4 5 6 5 7 9 9 10 12 12 13 11 8 7 8 9 10 11 11 10 11 11 11 11 12 11 10 9 13 15 13 11 11 11 12 13 12 10 7 8 9 15 18 19 20 21 21 21 22 22 20 20 12 9 12 9 7 11 10 11 9 5 8 9 10 7 10 5 7 7 2 1 5 5 4 7 11 21 23 29
6 5 5 5 5 4 4 6 7 9 9 10 11 13 13 12 10 7 8 8 10 9 9 9 9 10 11 10 12 12 13 12 14 15 16 14 11 11 10 11 12 13 10 7 9 8 7 7 9 9 11 13 12 12 12 18 18 14 13 12 7 10 11 10 6 5 7 8 8 13 10 8 7 7 8 5 4 3 3 3 5 5 6 8 11
Wind_Direction
178 176 175 178 166 173 175 180 175 173 175 178 184 184 175 167 162 165 164 163 160 163 158 157 163 157 157 149 160 144 142 183 178 181 177 170 170 156 158 174 172 150 171 162 149 149 143 143 140 142 139 139 138 142 141 142 137 136 135 131 132 131 140 126 124 121 120 121 113 116 112 110 107 104 102 99 99 97 90 88 87 84 83 82 82
180 177 178 174 172 173 183 177 181 175 183 184 185 191 179 172 168 170 170 171 174 165 175 167 169 161 165 166 168 145 138 178 183 183 190 179 176 153 177 196 150 160 166 160 156 161 152 153 148 147 152 151 146 147 151 149 147 143 139 143 146 136 137 132 127 125 125 121 120 118 115 112 108 107 107 104 95 88 92 91 87 85 84 80 81
185 181 182 174 178 181 190 180 182 182 188 187 181 193 182 182 180 180 182 181 178 166 192 179 175 171 168 184 181 156 165 189 185 196 195 186 180 171 173 207 176 191 171 167 180 159 162 157 160 155 158 152 152 157 154 153 153 148 147 145 141 128 134 136 131 134 131 125 126 124 118 115 113 111 107 101 94 95 94 92 90 89 88 86 83
189 186 188 179 183 187 186 187 190 181 187 184 179 185 184 159 155 176 175 186 173 176 192 187 184 179 176 191 192 182 174 186 198 190 201 187 185 181 177 177 231 211 175 171 175 177 190 170 171 164 169 168 163 163 161 160 162 163 166 151 149 153 162 127 138 139 142 135 130 129 128 124 122 119 110 107 107 104 101 98 97 96 92 89 82
190 189 188 186 184 182 185 190 192 183 182 170 168 172 173 173 167 175 180 185 182 182 186 200 188 179 182 182 197 194 176 184 183 204 196 199 185 187 189 188 181 188 229 210 179 205 187 176 174 174 166 181 171 171 170 169 169 168 167 174 164 166 158 152 164 148 150 145 138 140 135 133 127 123 120 120 117 115 112 110 105 100 97 92 91
199 191 191 192 185 189 187 186 187 176 172 169 184 188 190 185 179 186 187 196 192 191 191 196 190 179 189 180 202 190 191 188 177 209 245 213 205 192 185 185 185 190 184 182 243 215 180 186 182 186 170 192 175 181 175 177 177 177 177 178 176 174 172 165 169 161 160 155 149 150 144 145 137 129 134 133 128 126 123 120 116 111 103 100 98
200 193 192 197 190 194 198 195 176 175 175 180 188 191 194 190 185 195 187 204 202 193 201 201 189 187 186 183 194 187 208 192 180 202 246 285 269 251 230 192 190 195 185 190 209 211 185 200 200 189 186 198 181 188 185 180 183 183 187 181 181 185 175 170 183 174 167 165 161 156 160 157 153 144 152 147 141 139 135 133 128 118 117 112 107
188 192 197 202 200 200 201 191 173 176 184 184 192 193 195 192 190 195 187 199 199 199 206 206 197 192 175 184 180 210 219 197 182 207 237 246 232 249 248 222 197 189 182 200 205 192 189 212 212 212 199 192 188 189 188 190 187 190 191 189 180 184 183 186 186 185 178 175 177 169 166 169 164 163 161 159 156 150 146 143 139 136 132 126 123
194 192 198 198 197 196 195 186 174 184 187 193 202 203 195 194 193 200 207 195 196 199 201 207 197 175 147 136 66 232 242 282 247 235 296 250 234 231 258 284 320 212 197 201 212 203 196 237 201 227 201 192 198 194 195 198 200 198 199 199 199 187 194 194 195 191 190 182 187 187 181 172 177 177 170 170 166 164 158 155 153 148 145 136 134
202 201 205 206 203 196 182 159 159 175 189 199 207 203 201 197 197 194 204 207 201 198 196 195 167 169 146 84 9 281 270 303 328 315 257 254 238 228 234 246 260 276 268 208 198 205 199 213 217 214 205 201 209 203 204 206 207 206 204 201 198 200 199 202 203 191 196 195 193 190 219 192 181 189 184 174 178 175 170 167 163 160 154 146 149
191 192 204 197 185 192 192 173 170 176 191 204 205 201 195 191 195 181 195 215 220 200 191 162 153 166 116 70 315 290 310 299 293 263 254 276 285 283 258 243 241 250 260 244 201 204 304 222 198 201 204 211 223 217 209 208 212 211 211 206 204 206 201 202 205 202 205 208 210 185 202 221 187 186 201 186 182 186 181 176 178 174 165 164 160
190 197 202 187 187 203 201 182 188 190 197 200 200 196 192 187 195 184 181 179 204 127 91 118 108 103 92 336 293 301 277 280 270 264 255 238 247 257 248 244 238 233 251 276 281 265 210 260 265 204 206 195 223 221 214 214 219 219 218 219 216 210 195 195 205 211 209 207 208 202 198 221 213 183 195 219 197 191 188 190 189 184 179 176 179
205 202 202 202 204 205 201 190 191 195 200 204 192 186 183 186 173 160 167 163 183 149 122 132 139 182 197 247 252 230 255 272 263 259 253 250 234 248 262 258 241 233 227 257 261 243 225 222 236 233 204 197 198 218 220 223 220 223 221 220 219 217 220 208 211 209 214 219 208 214 198 209 223 209 196 200 218 193 196 198 194 194 192 188 191
200 198 195 202 207 205 196 188 188 196 194 185 179 161 163 182 171 183 202 183 189 173 164 138 213 207 189 230 251 243 225 240 252 245 242 242 228 242 251 252 256 248 238 239 240 236 229 232 245 278 243 211 205 200 210 224 221 218 223 216 217 217 217 217 217 214 219 214 218 214 212 208 215 236 193 206 207 207 199 199 201 200 200 198 197
190 192 197 205 205 199 199 188 184 169 162 178 165 177 183 183 182 189 176 205 182 174 180 193 195 183 93 63 248 261 228 237 237 237 220 225 222 232 227 249 254 255 255 259 249 240 237 243 260 252 260 263 227 213 214 216 215 208 224 215 218 217 217 215 214 214 215 217 217 221 220 213 213 227 213 198 207 217 208 204 204 203 205 203 204
193 200 207 213 209 209 194 189 185 173 187 190 182 193 182 181 191 197 156 165 205 206 202 201 195 147 198 206 188 166 296 237 219 226 197 219 216 228 207 225 242 244 237 243 240 235 238 246 242 248 250 250 245 222 221 216 208 214 220 222 218 221 218 218 213 217 218 218 217 220 222 222 214 221 224 208 212 213 219 210 207 208 208 208 209
195 201 208 208 197 194 193 185 174 190 201 202 196 198 197 198 193 189 187 196 202 207 199 205 214 218 171 120 162 228 228 262 162 233 156 206 222 218 218 220 229 230 228 240 244 248 245 237 236 238 238 252 262 268 260 228 205 211 216 226 223 221 231 227 222 219 218 222 216 219 221 225 221 219 221 223 214 216 218 217 213 208 212 211 212
202 196 199 203 197 192 192 188 190 194 198 204 203 199 201 200 197 199 202 209 216 183 192 204 222 228 250 261 64 227 197 192 110 247 150 224 222 201 222 224 221 232 223 239 233 229 230 236 222 232 226 232 236 246 245 219 210 207 210 210 215 220 226 246 239 227 226 225 218 219 220 223 225 220 225 224 220 219 217 217 218 212 213 216 214
208 202 205 200 190 184 192 196 193 193 190 194 196 203 204 204 196 201 209 209 213 206 191 193 199 247 238 253 269 263 311 171 221 236 258 187 223 210 224 219 218 229 231 232 229 223 233 228 230 229 228 224 230 234 241 230 218 217 212 210 206 215 222 228 241 229 224 222 217 219 221 219 223 224 226 226 228 222 224 224 221 217 215 216 216
217 211 211 205 204 199 203 207 204 202 193 201 207 205 205 203 204 211 216 210 216 221 209 190 185 216 216 228 238 216 239 313 335 259 264 264 228 211 242 225 213 224 222 225 220 223 233 225 229 225 227 228 223 225 229 230 223 217 219 216 210 213 217 222 228 232 242 231 220 219 221 221 220 225 226 228 228 226 223 225 225 222 218 218 219
216 210 205 205 196 204 197 199 202 203 195 204 207 208 211 207 201 201 208 211 208 216 218 205 202 217 188 223 228 229 217 248 319 294 243 247 252 222 228 196 230 241 231 227 233 233 233 233 230 222 227 233 222 226 236 250 242 234 232 223 220 215 216 220 222 227 234 239 222 217 218 222 223 226 226 228 228 228 227 225 223 226 224 222 221
218 217 214 208 202 205 203 204 205 202 204 203 206 210 212 209 205 204 206 209 209 208 220 223 217 221 215 204 207 230 238 241 236 230 256 243 256 243 247 209 224 233 230 226 227 228 230 229 228 232 235 234 228 225 236 244 243 240 232 231 225 221 219 219 223 224 229 229 229 227 225 225 224 224 225 227 228 227 225 229 223 227 225 223 222
224 222 217 212 211 206 210 210 209 210 211 212 214 210 211 215 218 216 220 219 221 215 224 232 227 213 216 208 208 209 208 210 222 223 226 235 244 253 252 238 238 256 224 225 227 232 228 229 230 232 223 232 235 228 229 234 234 232 233 235 236 230 225 223 222 223 224 220 218 220 221 228 228 226 223 224 226 228 226 225 223 225 225 224 220
228 229 220 216 216 214 211 212 211 213 215 211 210 209 209 208 212 209 213 213 213 210 222 226 225 232 225 223 222 215 224 232 229 224 219 238 240 251 247 250 264 232 225 354 240 233 222 224 227 233 233 235 237 229 230 233 235 233 233 234 236 237 233 226 222 218 216 217 216 216 219 222 227 229 230 230 224 226 228 227 224 223 225 222 219
225 228 231 227 224 224 212 210 212 207 211 200 204 204 202 206 213 214 211 208 200 210 220 222 215 217 222 218 222 230 236 241 246 247 248 246 244 258 255 228 249 252 193 185 238 202 218 227 224 227 228 225 231 215 219 227 232 228 229 238 236 241 243 233 227 220 215 216 215 216 216 217 219 220 221 227 229 226 225 226 225 225 228 223 221
221 222 225 224 225 225 225 225 222 214 206 205 202 201 203 212 214 216 215 209 207 213 221 221 221 228 231 236 233 232 237 238 241 240 239 229 242 243 261 250 229 262 213 213 207 251 216 219 214 201 196 208 226 216 199 225 224 227 216 224 235 237 239 238 233 228 219 214 214 211 211 213 214 216 221 227 233 233 227 225 225 224 230 222 220
213 216 209 217 224 224 226 226 224 223 214 209 210 211 212 219 219 223 226 216 221 225 232 232 235 232 222 226 230 228 231 225 220 236 228 227 234 243 243 264 266 246 251 212 231 214 242 218 198 217 218 218 219 219 203 215 223 220 220 221 232 233 236 237 234 230 226 220 218 216 211 212 214 219 221 225 229 236 235 227 227 226 227 227 226
226 219 210 211 222 228 227 228 228 227 226 224 218 211 212 216 222 221 226 212 224 225 227 220 231 226 224 219 222 230 225 227 221 228 230 229 235 238 238 241 257 272 254 262 207 246 198 234 200 210 216 215 217 204 220 219 224 220 219 221 226 230 231 234 235 231 229 226 221 221 219 214 213 217 221 223 225 234 242 228 228 227 225 224 226
236 218 228 219 223 225 233 234 233 233 233 231 228 222 212 214 217 221 226 218 216 225 220 221 228 223 227 222 227 232 231 219 217 223 222 231 230 228 226 233 237 255 268 267 256 260 190 200 228 213 205 210 219 210 213 204 217 218 218 221 227 228 227 228 232 232 230 230 228 222 222 219 214 215 219 222 224 228 239 234 224 224 225 219 198
216 218 223 229 227 230 237 236 232 233 236 236 233 232 228 227 222 221 224 222 227 229 222 223 229 221 226 223 220 231 229 218 218 219 217 219 224 224 221 232 232 245 254 266 273 220 265 197 213 231 188 212 211 204 200 211 213 217 220 222 226 227 225 228 230 230 230 230 229 227 226 227 222 215 215 220 221 221 226 231 232 240 215 166 195
218 218 219 226 229 229 231 240 242 239 242 242 238 236 233 235 233 227 221 219 223 232 229 226 233 230 234 236 233 236 229 232 230 228 229 223 226 227 233 222 232 237 248 255 272 255 207 252 217 225 218 198 200 203 209 222 218 213 219 222 227 228 227 228 232 235 233 230 230 228 226 225 227 223 215 216 217 218 217 215 221 204 186 196 204
223 216 217 219 223 228 228 236 240 246 248 247 243 240 238 237 236 230 221 210 218 226 234 227 224 228 237 239 235 238 233 234 232 228 229 226 224 223 222 237 234 229 239 250 251 267 209 256 257 203 217 213 189 196 216 217 222 212 217 224 228 228 229 233 227 224 230 230 228 228 226 223 227 224 217 214 214 216 217 214 216 211 205 211 214
236 235 227 225 234 238 239 231 247 250 245 244 242 243 242 242 238 235 233 226 227 233 236 248 239 235 236 239 239 237 232 234 230 230 226 221 219 231 231 233 232 227 226 237 250 265 250 218 254 259 214 190 217 197 218 205 199 206 216 224 225 226 228 230 233 228 229 233 231 229 228 224 221 221 219 219 216 214 216 218 218 220 212 217 219
253 253 245 245 244 245 246 245 245 245 245 243 241 239 242 243 242 238 237 234 236 237 236 239 232 229 232 233 236 237 231 231 233 234 230 227 226 223 226 224 232 233 224 237 250 256 271 178 255 246 249 184 240 175 212 198 213 215 217 219 220 222 227 228 229 230 225 232 238 236 232 229 222 219 221 219 221 219 218 217 219 224 221 222 221
257 250 253 248 243 243 245 244 244 244 243 245 244 240 240 241 242 242 239 238 236 234 230 234 231 228 230 231 236 235 235 237 235 237 231 229 224 228 230 226 225 223 226 228 243 255 260 263 227 259 239 213 214 207 204 211 215 204 211 215 217 219 223 223 227 231 217 217 222 226 226 225 222 218 221 217 219 224 222 219 215 218 216 216 218
256 253 250 251 246 245 244 245 244 244 243 244 245 244 241 239 240 244 244 242 241 238 232 233 229 226 231 235 237 233 234 238 237 236 234 230 228 229 231 233 233 236 235 232 234 246 260 267 238 239 246 252 239 232 197 214 210 213 206 218 215 223 221 218 220 224 222 218 222 224 229 227 227 225 223 218 215 216 218 221 216 214 215 217 219
258 257 252 247 246 243 242 243 245 245 245 245 246 246 243 241 242 245 247 246 242 236 235 236 234 231 231 233 236 230 231 236 238 238 237 233 230 231 233 231 234 238 236 233 238 239 253 260 264 250 257 255 253 225 191 194 212 224 216 218 215 221 219 220 218 219 211 216 223 227 229 228 225 225 225 221 219 212 212 215 217 217 216 217 220
265 259 256 252 243 243 245 249 252 255 255 254 256 256 254 249 244 245 246 242 242 239 237 236 235 232 236 239 238 234 234 235 239 236 236 237 233 233 232 234 234 236 237 237 238 242 246 256 260 268 237 243 244 237 193 204 201 212 220 224 228 221 210 213 216 213 212 211 214 223 229 228 227 228 228 226 220 213 210 211 217 217 211 212 217
268 265 262 258 255 249 250 249 250 252 254 254 255 254 253 250 247 239 236 240 242 241 240 236 234 234 236 238 239 234 235 234 239 237 236 236 233 235 231 235 233 235 238 238 236 241 244 253 259 253 262 247 236 250 179 196 219 212 205 207 227 213 208 210 215 206 209 217 219 219 220 220 219 219 221 224 222 217 217 215 212 214 213 212 217
262 265 266 264 264 257 254 251 251 251 252 253 252 251 250 249 249 243 233 236 241 242 243 242 241 242 239 238 237 236 236 237 237 241 235 241 236 240 232 233 233 232 237 237 237 239 244 248 251 256 249 257 242 235 126 168 205 232 217 210 222 200 205 210 213 190 205 208 217 215 223 227 227 225 227 233 232 228 223 218 216 215 215 213 216
258 262 267 267 264 260 257 255 255 253 252 251 249 246 247 249 250 253 250 243 237 244 247 244 243 242 243 242 243 241 237 239 239 240 238 236 237 242 237 228 234 232 238 235 238 238 244 247 255 249 254 253 234 232 205 197 198 214 193 193 232 221 188 210 219 210 201 206 212 209 216 213 216 219 218 223 227 227 224 217 216 217 218 219 217
254 258 264 264 260 259 261 259 256 254 252 252 245 242 244 252 255 256 256 251 240 242 248 249 247 243 243 242 241 238 237 236 237 239 242 242 240 241 244 229 232 233 235 237 238 237 242 247 249 249 250 248 231 231 235 224 199 208 206 210 225 229 211 228 231 215 202 196 194 206 214 210 214 220 215 220 219 216 216 214 208 202 214 218 218
255 253 251 259 257 255 253 254 254 251 251 252 245 242 243 242 248 257 259 257 245 241 243 247 251 249 247 245 248 241 238 242 244 244 244 244 244 245 245 244 240 234 235 237 240 235 240 246 252 248 248 255 251 237 237 235 214 223 223 217 224 207 205 198 227 198 191 192 199 201 220 208 208 218 219 216 211 206 210 212 205 205 208 215 219
256 250 252 249 251 252 255 257 256 255 256 251 250 254 253 251 243 250 257 257 250 244 242 241 247 249 251 249 245 242 239 238 241 244 244 245 247 249 249 249 248 245 240 238 243 244 239 247 253 249 249 250 258 246 241 228 230 222 220 214 219 205 206 213 220 210 180 177 188 203 227 206 206 223 225 219 209 208 210 207 209 213 212 213 215
266 253 248 250 251 247 248 258 261 259 261 251 248 251 254 253 251 247 257 257 257 251 246 244 244 245 248 250 250 243 245 236 238 245 250 249 243 245 248 250 250 247 247 246 243 244 249 249 252 257 249 251 256 252 236 232 220 225 212 214 211 204 213 220 224 207 176 181 182 207 219 197 197 211 220 211 198 208 212 212 212 214 215 214 215
256 259 256 253 255 251 250 256 264 267 264 257 250 256 257 257 256 253 259 261 260 259 255 251 246 248 246 250 253 252 242 239 238 242 246 249 252 252 250 249 249 248 245 246 248 246 244 246 251 257 259 243 247 257 250 219 210 220 211 219 215 216 220 223 226 225 140 167 187 183 228 211 195 210 228 219 201 212 214 209 215 216 217 219 221
275 273 277 272 263 262 262 263 271 274 270 275 270 268 268 264 261 258 264 264 264 263 261 256 251 247 249 248 250 254 252 246 238 235 246 249 250 251 252 253 252 252 248 243 240 243 244 245 248 254 261 258 256 258 258 230 221 224 215 219 214 215 223 239 267 225 191 181 185 188 224 208 176 204 224 205 202 213 202 206 214 216 219 220 220
279 275 273 264 270 273 270 267 272 274 276 278 275 274 274 271 265 266 266 265 265 265 264 261 258 258 254 249 250 252 250 250 245 239 242 249 253 253 254 256 257 255 252 243 242 244 244 245 246 249 254 257 256 256 256 248 237 239 232 231 213 205 208 219 229 213 201 189 184 189 214 204 185 201 211 198 203 215 202 204 215 216 218 219 220
296 290 285 279 279 281 278 272 270 275 278 284 281 276 274 273 273 273 271 269 267 266 266 265 264 261 256 251 250 254 253 251 244 243 247 247 252 253 255 259 258 258 258 251 243 245 246 248 250 253 257 261 262 262 260 255 245 215 200 207 216 186 197 218 223 210 210 176 196 196 202 219 180 185 189 207 200 209 208 203 198 213 215 218 220
299 295 295 290 278 270 270 265 262 274 278 280 278 274 270 270 269 272 272 271 269 267 271 269 266 265 262 254 247 256 257 258 247 245 248 249 253 254 256 259 261 260 258 251 252 247 245 249 254 256 259 262 265 267 266 262 256 221 183 212 212 186 214 214 222 213 203 184 196 177 191 218 157 182 176 52 63 217 196 177 192 208 217 221 222
274 282 283 283 282 276 262 266 262 264 273 276 270 269 263 259 262 266 268 270 269 265 267 269 264 264 265 257 243 242 251 257 253 250 250 248 250 251 253 257 258 262 259 253 254 256 254 250 252 257 261 261 260 259 259 259 252 221 206 219 204 197 223 220 202 191 228 219 176 174 192 210 151 190 158 143 198 222 163 184 174 180 201 212 222